Weather Roundup
Issued by NWS Springfield, MO

Home | Current Version | Previous Version | Text Only | Print | Product List | Glossary On
Versions: 1 2 3 4 5 6 7 8 9 10 11 12 13 14 15 16 17 18 19 20 21 22 23 24 25 26 27 28 29 30 31 32 33 34 35 36 37 38 39 40 41 42 43 44 45 46 47 48 49 50
000
NZUS99 KSGF 232007
HRRSGF

HOURLY WEATHER
NATIONAL WEATHER SERVICE SPRINGFIELD MO
200 PM CST TUE JAN 23 2018

......SGF CWA......

CITY           SKY/WX    TMP DP  RH WIND       PRES   REMARKS
SPRINGFIELD    MOSUNNY   38  28  67 W10       30.15F WCI  31
JOPLIN         SUNNY     40  30  67 W7        30.20F
WEST PLAINS    SUNNY     41  28  60 NW14G22   30.12S
ROLLA          CLOUDY    33  27  78 W14G25    30.13R WCI  23
OSAGE BEACH    CLOUDY    34  26  72 W14       30.17S WCI  25
BRANSON        MOSUNNY   39  27  60 W5        30.17S

......SURROUNDING SGF CWA......

CITY           SKY/WX    TMP DP  RH WIND       PRES   REMARKS
CHANUTE          N/A     41  26  55 W13       30.22
PARSONS        SUNNY     42  26  53 W9        30.24S
COFFEYVILLE    SUNNY     44  25  47 NW8       30.23F
EMPORIA        SUNNY     37  26  64 NW9       30.20F WCI  30
GROVE OK       SUNNY     43  32  65 W7        30.22F
ROGERS AR      SUNNY     42  29  59 W5        30.18F
SILOAM SPRINGS SUNNY     44  27  51 NW8       30.20S
HARRISON AR    SUNNY     42  28  57 W9        30.15F
NEAR YELLVILLE SUNNY     45  28  51 NW13      30.17S

......KANSAS AND MISSOURI......

CITY           SKY/WX    TMP DP  RH WIND       PRES   REMARKS
KANSAS CTY INT PTSUNNY   33  25  72 W10G18    30.18F WCI  25
DOWNTOWN KC    PTSUNNY   34  25  69 W12       30.19F WCI  25
COLUMBIA       CLOUDY    36  27  69 NW17G24   30.12S WCI  26
SEDALIA        CLOUDY    35  30  82 W14       30.16F WCI  26
ST JOSEPH      CLOUDY    30  25  81 W13       30.21S WCI  20
ST LOUIS       CLOUDY    36  28  73 NW15G25   30.08R WCI  27
SPIRIT OF STL  CLOUDY    37  28  70 W18       30.09R WCI  27
KIRKSVILLE     CLOUDY    32  26  78 W14G22    30.11R WCI  22
WICHITA        MOSUNNY   46  21  37 VRB5      30.22F
TOPEKA         MOSUNNY   33  27  78 W12       30.22S WCI  24
OLATHE         MOSUNNY   31  26  82 W14       30.19S WCI  21

......TENNESSEE......

CITY           SKY/WX    TMP DP  RH WIND       PRES   REMARKS
MEMPHIS        PTSUNNY   43  30  60 NW10      30.15R
NASHVILLE      CLOUDY    43  29  57 W7        30.06R

......ARKANSAS.......

CITY           SKY/WX    TMP DP  RH WIND       PRES   REMARKS
FAYETTEVILLE   SUNNY     44  29  55 NW7       30.19F
FT SMITH       SUNNY     50  29  44 W12       30.21F
LITTLE ROCK    MOSUNNY   52  29  41 NW15      30.17S

......OKLAHOMA.......

CITY           SKY/WX    TMP DP  RH WIND       PRES   REMARKS
TULSA          SUNNY     50  21  32 W8        30.22F
PONCA CITY     SUNNY     48  17  29 W8        30.24F
MCALESTER      MOSUNNY   52  19  27 VRB7      30.24F
OKLAHOMA CITY  MOSUNNY   50  14  23 NW9       30.25F

......IOWA............

CITY           SKY/WX    TMP DP  RH WIND       PRES   REMARKS
DES MOINES     CLOUDY    28  21  75 NW15      30.13R WCI  16
QUAD CITIES    CLOUDY    30  23  75 NW18      30.01R WCI  18

......ILLINOIS........

CITY           SKY/WX    TMP DP  RH WIND       PRES   REMARKS
QUINCY         CLOUDY    32  26  78 NW17      30.07R WCI  21
CHICAGO        CLOUDY    30  22  72 NW14      29.89R WCI  19




USA.gov is the U.S. government's official web portal to all federal, state and local government web resources and services.